Regional Weather Roundup
Issued by NWS

Home | Current Version | Previous Version | Graphics & Text | Print | Product List | Glossary On
Versions: 1 2 3 4 5 6 7 8 9 10 11 12 13 14 15 16 17 18 19 20 21 22 23 24 25 26 27 28 29 30 31 32 33 34 35 36 37 38 39 40 41 42 43 44 45 46 47 48 49 50
000
ASUS43 KDMX 300807
RWRIA

WEATHER ROUNDUP FOR IOWA
NATIONAL WEATHER SERVICE DES MOINES IA
300 AM CDT THU JUL 30 2015

NOTE: "FAIR" INDICATES FEW OR NO CLOUDS BELOW 12,000 FEET WITH NO
SIGNIFICANT WEATHER AND/OR OBSTRUCTIONS TO VISIBILITY.

* - THESE STATIONS ARE NOT NWS STATIONS...THUS NOT UNDER NWS
QUALITY CONTROL.  THEY ALSO DO NOT REPORT WEATHER SUCH
AS PRECIPITATION OR FOG.

IAZ001>003-012>014-020>022-031>034-043>046-300900-
   NORTHWEST IOWA

CITY           SKY/WX    TMP DP  RH WIND       PRES   REMARKS
CARROLL *      CLEAR     63  59  88 W7        30.14S
CHEROKEE *     CLEAR     61  61 100 CALM      30.14S
DENISON *      CLEAR     61  59  94 CALM      30.14S
LE MARS *      PTCLDY    63  59  88 CALM      30.14S
ORANGE CITY *  PTCLDY    61  55  82 CALM      30.14S
SHELDON *      PTCLDY    55  54  94 S5        30.13R
SIOUX CITY     CLEAR     66  58  75 W6        30.14R
SPENCER          N/A     58  54  86 CALM      30.13S
STORM LAKE *   CLEAR     61  59  94 SW8       30.15S
$$

IAZ055>058-069>071-079>083-090>094-300900-
   SOUTHWEST IOWA

CITY           SKY/WX    TMP DP  RH WIND       PRES   REMARKS
ATLANTIC *     CLEAR     61  61 100 SW3       30.17S
AUDUBON *      CLEAR     61  57  88 CALM      30.17S
CLARINDA *     CLEAR     63  63 100 CALM      30.19S
COUNCIL BLFS * CLEAR     68  59  73 SW7       30.18R
CRESTON *      CLEAR     64  59  82 W7        30.17S
HARLAN  *      CLEAR     59  59 100 CALM      30.20S
LAMONI         CLEAR     68  58  70 W6        30.16F
RED OAK *      CLEAR     61  61 100 CALM      30.18R
SHENANDOAH *     N/A     63  61  94 CALM      30.18S
$$

IAZ047>049-059>061-072>074-084-300900-
   CENTRAL IOWA

CITY           SKY/WX    TMP DP  RH WIND       PRES   REMARKS
AMES           CLEAR     62  59  90 W8        30.12S
ANKENY *       CLEAR     66  59  77 W9        30.13S
CHARITON *     CLEAR     64  59  82 SW7       30.15S
DES MOINES     CLEAR     67  59  75 SW6       30.13S
GRINNELL*      CLEAR     63  59  88 W5        30.13S
KNOXVILLE *    CLEAR     64  57  77 W7        30.12S
MARSHALLTOWN     N/A     62  59  90 W3        30.11S
PELLA *        CLEAR     68  63  83 W8        30.14S
PERRY *          N/A     63  59  88 W6        30.14S
$$

IAZ004>006-015-016-023>025-035-036-300900-
   NORTH CENTRAL IOWA

CITY           SKY/WX    TMP DP  RH WIND       PRES   REMARKS
ALGONA *       CLEAR     63  59  88 W7        30.12S
CLARION *      CLEAR     59  57  94 CALM      30.12S
ESTHERVILLE    CLEAR     59  57  93 W7        30.11S
FORT DODGE *   CLEAR     61  55  82 SW6       30.14S
MASON CITY     CLEAR     63  59  87 W9        30.11F
FOREST CITY *  CLEAR     57  57 100 CALM      30.11S
IOWA FALLS *     N/A     61  57  88 W5        30.13S
$$

IAZ007>011-017>019-026>030-037>042-050>054-066-300900-
   NORTHEAST IOWA

CITY           SKY/WX    TMP DP  RH WIND       PRES   REMARKS
CEDAR RAPIDS   CLEAR     61  60  97 W6        30.09S
CHARLES CITY * CLEAR     64  61  88 W9        30.09F
CLINTON *      CLEAR     59  55  88 W6        30.10S
DECORAH *      CLEAR     63  59  88 VRB3      30.06F
DUBUQUE        CLEAR     64  58  80 W12       30.07F
MONTICELLO *   CLEAR     64  61  88 VRB3      30.08S
OELWEIN *        N/A     61  59  94 W6        30.09F
WATERLOO       CLEAR     66  60  81 W9        30.08S
$$

IAZ064-065-067-068-078-300900-
   EAST CENTRAL IOWA

CITY           SKY/WX    TMP DP  RH WIND       PRES   REMARKS
DAVENPORT      CLEAR     63  60  90 W7        30.09R
IOWA CITY      CLEAR     64  59  83 W6        30.11S
MT. PLEASANT * CLEAR     64  59  82 W6        30.12S
MUSCATINE *    CLEAR     66  59  77 W6        30.10S
QUAD CITIES    CLEAR     64  59  83 SW5       30.08S
$$

IAZ062-063-075>077-085>089-095>099-300900-
   SOUTHEAST IOWA

CITY           SKY/WX    TMP DP  RH WIND       PRES   REMARKS
BURLINGTON     CLEAR     66  61  84 W5        30.12R
FAIRFIELD *    CLEAR     63  59  88 W6        30.12S
FORT MADISON * CLEAR     66  61  82 W6        30.13F
KEOKUK *       CLEAR     66  61  82 W6        30.12S
OSKALOOSA *      N/A     61  59  94 W3        30.13S
CENTERVILLE *  CLEAR     64  59  82 SW5       30.16F
OTTUMWA        CLEAR     62  59  90 W6        30.11F
WASHINGTON *   CLEAR     64  61  88 W7        30.13S
$$

ABBREVIATIONS USED IN REMARKS
   TC - TEMPERATURES IN CELSIUS
  WCI - WIND CHILL INDEX
   HX - HEAT INDEX
  VSB - VISIBILITY
$$




USA.gov is the U.S. government's official web portal to all federal, state and local government web resources and services.